Location: Newark
(45.7425°N, 0.7617°W)
Time: 12:55:19
(UTC+00:00)

LilacSat-2 - Pass Details

Date: 07 April 2020
Orbit: 512 x 536 km, 97.5° (Epoch: 02 June)

Event Time Altitude Azimuth Distance (km) Brightness Sun altitude
Rises 04:49:33 0° 31° (NNE) 2,695 ? -7.9°
Reaches altitude 10° 04:52:31 10° 56° (NE) 1,794 ? -7.4°
Maximum altitude 04:54:42 15° 90° (E) 1,519 ? -7.0°
Drops below altitude 10° 04:56:52 10° 125° (SE) 1,779 ? -6.7°
Sets 04:59:47 0° 150° (SSE) 2,657 ? -6.2°
